Location: Nairn
(57.5833°N, 3.8667°W)
Time: 01:36:15
(UTC+00:00)

Vanguard 1 Rocket - Pass Details

Date: 29 November 2020
Orbit: 655 x 4221 km, 34.3° (Epoch: 20 January)

Event Time Altitude Azimuth Distance (km) Brightness Sun altitude
Exits shadow 05:31:53 16° 243° (WSW) 6,123 11.1 -22.3°
Maximum altitude 05:43:15 27° 205° (SSW) 4,377 10.7 -20.8°
Drops below altitude 10° 05:53:32 10° 154° (SSE) 4,468 11.4 -19.4°
Sets 05:57:02 0° 142° (SE) 5,014 12.0 -19.0°
